Location: Krasnoyarskiy Pitomnik
(51.1333°N, 71.6167°E)
Time: 22:00:57
(UTC+00:00)

Transit 4A - Visible Passes

Search period start: 12 April 2024 00:00
Search period end: 22 April 2024 00:00
Orbit: 871 x 972 km, 66.8° (Epoch: 12 April)

Date Brightness Start Highest point End Pass type
(mag) Time Alt. Az. Time Alt. Az. Time Alt. Az.
12 Apr 9.4 15:55:11 10° NNW 15:59:57 25° NNE 16:04:23 11° ENE visible
12 Apr 7.8 17:41:26 10° NW 17:47:17 71° NE 17:47:52 66° E visible
12 Apr 9.4 19:28:23 10° NW 19:31:21 22° W 19:31:21 22° W visible
13 Apr 9.2 16:04:16 10° NNW 16:09:20 29° NNE 16:13:10 15° E visible
13 Apr 7.6 17:50:31 10° NW 17:56:23 87° SW 17:56:39 82° SSE visible
13 Apr 9.7 19:38:02 10° WNW 19:40:08 16° W 19:40:08 16° W visible
14 Apr 8.8 16:13:19 10° NNW 16:18:41 36° NE 16:21:58 20° E visible
14 Apr 7.8 17:59:37 10° NW 18:05:24 65° WSW 18:05:27 65° SW visible
14 Apr 10.0 19:48:17 10° WNW 19:48:56 11° W 19:48:56 11° W visible
15 Apr 8.4 16:22:21 10° NNW 16:27:58 45° NE 16:30:48 26° E visible
15 Apr 8.2 18:08:49 10° NW 18:14:17 46° WSW 18:14:17 46° WSW visible
16 Apr 9.5 14:45:06 10° NNW 14:49:37 22° NNE 14:54:07 10° ENE visible
16 Apr 8.1 16:31:23 10° NNW 16:37:10 58° NE 16:39:39 33° ESE visible
16 Apr 8.8 18:18:06 10° NW 18:23:09 33° WSW 18:23:09 33° WSW visible
17 Apr 9.3 14:54:13 10° NNW 14:59:03 26° NNE 15:03:53 10° E visible
17 Apr 7.8 16:40:27 10° NW 16:46:18 77° NE 16:48:32 39° SE visible
17 Apr 9.2 18:27:33 10° WNW 18:32:02 24° WSW 18:32:02 24° WSW visible
18 Apr 9.0 15:03:17 10° NNW 15:08:26 31° NNE 15:13:35 10° E visible
18 Apr 7.7 16:49:31 10° NW 16:55:23 80° SW 16:57:27 42° SSE visible
18 Apr 9.7 18:37:18 10° WNW 18:40:49 17° WSW 18:40:57 17° WSW visible
19 Apr 8.7 15:12:20 10° NNW 15:17:46 38° NE 15:22:54 11° ESE visible
19 Apr 8.0 16:58:40 10° NW 17:04:23 59° WSW 17:06:24 38° S visible
19 Apr 10.0 18:48:04 10° W 18:49:29 11° W 18:49:54 11° WSW visible
20 Apr 8.3 15:21:21 10° NNW 15:27:01 49° NE 15:31:52 14° ESE visible
20 Apr 8.5 17:07:51 10° NW 17:13:19 42° WSW 17:15:23 31° SSW visible
21 Apr 8.0 15:30:23 10° NW 15:36:12 64° NE 15:40:54 16° SE visible
21 Apr 9.1 17:17:11 10° NW 17:22:10 30° WSW 17:24:24 23° SSW visible
